Weather History for Oakland, MD

Change the Weather History Date:

Friday, August 9, 2013

  Actual Average (KMGW) Record (KMGW)
Temperature  
Mean Temperature 68 °F 73 °F  
Max Temperature 71 °F 83 °F 94 °F (1988)
Min Temperature 64 °F 62 °F 46 °F (1989)
Degree Days  
Heating Degree Days 0 0  
Month to date heating degree days 0  
Since 1 June heating degree days 34  
Since 1 July heating degree days 3  
Cooling Degree Days 2 8  
Month to date cooling degree days 72  
Year to date cooling degree days 556  
Since 1 June cooling degree days 489  
Growing Degree Days 18 (Base 50)    
Moisture  
Dew Point 70 °F    
Average Humidity 98    
Maximum Humidity 100    
Minimum Humidity 94    
Precipitation  
Precipitation 0.00 in 0.12 in 1.65 in (1962)
Month to date precipitation 1.08  
Year to date precipitation 27.00  
Sea Level Pressure  
Sea Level Pressure 30.05 in    
Wind  
Wind Speed 7 mph (WSW)    
Max Wind Speed 13 mph    
Max Gust Speed 25 mph    
Visibility 3 miles    
Events Fog    
T = Trace of Precipitation, MM = Missing Value Source: NWS Daily Summary

Daily Weather History Graph

Daily Weather History Graph

Search for Another Location

Airport:

Trip Planner

Search our weather history database for the weather conditions in past years. The results will help you decide how hot, cold, wet, or windy it might be!

Date:

Astronomy

Aug. 09, 2013 Rise Set
Actual Time 6:24 AM EDT 8:20 PM EDT
Civil Twilight 5:55 AM EDT 8:49 PM EDT
Nautical Twilight 5:19 AM EDT 9:25 PM EDT
Astronomical Twilight 4:40 AM EDT 10:03 PM EDT
Moon 9:07 AM EDT (8/9) 9:30 PM EDT (8/9)
Length of Visible Light 14h 54m
Length of Day
13h 56m
Waxing Crescent, 7% of the Moon is Illuminated
Aug 9
Waxing Crescent
Aug 14
First Quarter
Aug 20
Full
Aug 28
Last Quarter
Sep 5
New

Hourly Weather History & Observations

Time (EDT) Temp. Dew Point Humidity Pressure Visibility Wind Dir Wind Speed Gust Speed Precip Events Conditions
12:10 AM 66.2 °F - N/A% 30.06 in 2.0 mi SSW 4.6 mph - N/A   Overcast
12:30 AM 66.2 °F - N/A% 30.06 in 0.8 mi WSW 4.6 mph - N/A   Overcast
12:50 AM 66.2 °F - N/A% 30.06 in 2.0 mi SW 4.6 mph - N/A   Overcast
1:10 AM 64.4 °F - N/A% 30.05 in 2.0 mi West 4.6 mph - N/A   Overcast
1:30 AM 64.4 °F - N/A% 30.04 in 2.0 mi WSW 4.6 mph - N/A   Overcast
1:50 AM 64.4 °F - N/A% 30.04 in 2.0 mi WSW 4.6 mph - N/A   Overcast
2:10 AM 66.2 °F - N/A% 30.04 in 3.0 mi WSW 6.9 mph - N/A   Overcast
2:30 AM 64.4 °F - N/A% 30.03 in 4.0 mi SW 5.8 mph - N/A   Haze
2:50 AM 66.2 °F - N/A% 30.03 in 3.0 mi WSW 5.8 mph - N/A   Overcast
3:10 AM 66.2 °F - N/A% 30.04 in 3.0 mi WSW 6.9 mph - N/A   Overcast
3:30 AM 66.2 °F - N/A% 30.03 in 2.5 mi WSW 6.9 mph - N/A   Overcast
3:50 AM 66.2 °F - N/A% 30.03 in 1.8 mi West 5.8 mph - N/A   Overcast
4:10 AM 66.2 °F - N/A% 30.03 in 1.8 mi WSW 5.8 mph - N/A   Overcast
4:30 AM 66.2 °F - N/A% 30.04 in 2.5 mi WSW 5.8 mph - N/A   Overcast
4:50 AM 66.2 °F - N/A% 30.03 in 2.5 mi West 4.6 mph - N/A   Overcast
5:10 AM 66.2 °F - N/A% 30.03 in 1.8 mi WSW 6.9 mph - N/A   Overcast
5:30 AM 66.2 °F - N/A% 30.03 in 2.5 mi WSW 6.9 mph - N/A   Overcast
5:50 AM 66.2 °F - N/A% 30.03 in 4.0 mi WSW 6.9 mph - N/A   Haze
6:10 AM 66.2 °F - N/A% 30.03 in 2.0 mi WSW 5.8 mph - N/A   Overcast
6:30 AM 66.2 °F - N/A% 30.03 in 2.0 mi WSW 6.9 mph - N/A   Overcast
6:50 AM 66.2 °F - N/A% 30.04 in 1.0 mi SW 6.9 mph - N/A   Overcast
7:10 AM 66.2 °F - N/A% 30.04 in 4.0 mi WSW 5.8 mph - N/A   Haze
7:30 AM 66.2 °F - N/A% 30.04 in 1.8 mi SW 9.2 mph - N/A   Overcast
7:50 AM 66.2 °F - N/A% 30.04 in 4.0 mi SW 6.9 mph - N/A   Haze
8:10 AM 66.2 °F - N/A% 30.04 in 0.8 mi SW 8.1 mph - N/A   Overcast
8:30 AM 66.2 °F - N/A% 30.04 in 3.0 mi West 6.9 mph - N/A   Overcast
8:50 AM 66.2 °F - N/A% 30.04 in 2.5 mi WSW 9.2 mph - N/A   Overcast
9:10 AM 66.2 °F - N/A% 30.04 in 1.5 mi WSW 9.2 mph - N/A   Overcast
9:30 AM 66.2 °F - N/A% 30.03 in 2.5 mi WSW 8.1 mph 17.3 mph N/A   Overcast
9:50 AM 68.0 °F - N/A% 30.03 in 4.0 mi SW 10.4 mph 16.1 mph N/A   Haze
10:10 AM 66.2 °F - N/A% 30.03 in 1.8 mi Calm Calm - N/A   Overcast
10:30 AM 68.0 °F - N/A% 30.04 in 1.5 mi West 8.1 mph - N/A   Overcast
10:50 AM 66.2 °F - N/A% 30.04 in 7.0 mi WSW 10.4 mph 23.0 mph N/A   Overcast
11:10 AM 66.2 °F - N/A% 30.04 in 2.5 mi WSW 11.5 mph 20.7 mph N/A   Overcast
11:30 AM 66.2 °F - N/A% 30.04 in 4.0 mi WSW 10.4 mph - N/A   Haze
11:50 AM 66.2 °F - N/A% 30.03 in 1.8 mi WSW 4.6 mph - N/A   Overcast
12:05 PM 66.2 °F - N/A% 30.04 in 1.0 mi West 10.4 mph 18.4 mph N/A   Overcast
12:35 PM 66.2 °F - N/A% 30.04 in 5.0 mi West 10.4 mph 19.6 mph N/A   Haze
12:55 PM 66.2 °F - N/A% 30.05 in 1.5 mi West 11.5 mph 18.4 mph N/A   Overcast
1:15 PM 66.2 °F - N/A% 30.05 in 1.5 mi WSW 11.5 mph 25.3 mph N/A   Overcast
1:35 PM 66.2 °F - N/A% 30.05 in 4.0 mi West 8.1 mph 19.6 mph N/A   Haze
1:55 PM 68.0 °F - N/A% 30.05 in 4.0 mi West 8.1 mph 16.1 mph N/A   Haze
2:15 PM 68.0 °F - N/A% 30.04 in 5.0 mi West 8.1 mph 18.4 mph N/A   Haze
2:35 PM 69.8 °F 69.8 °F 100% 30.05 in 10.0 mi West 6.9 mph 18.4 mph N/A   Mostly Cloudy
2:55 PM 71.6 °F 71.6 °F 100% 30.05 in 10.0 mi WSW 10.4 mph 18.4 mph N/A   Mostly Cloudy
3:15 PM 69.8 °F 69.8 °F 100% 30.04 in 10.0 mi WSW 8.1 mph - N/A   Mostly Cloudy
3:35 PM 71.6 °F 71.6 °F 100% 30.04 in 10.0 mi WSW 12.7 mph 19.6 mph N/A   Mostly Cloudy
3:55 PM 71.6 °F 69.8 °F 94% 30.04 in 10.0 mi WSW 10.4 mph 17.3 mph N/A   Mostly Cloudy
4:15 PM 71.6 °F 69.8 °F 94% 30.03 in 10.0 mi WSW 10.4 mph 17.3 mph N/A   Scattered Clouds
4:35 PM 71.6 °F 69.8 °F 94% 30.03 in 10.0 mi WSW 10.4 mph 17.3 mph N/A   Mostly Cloudy
4:55 PM 71.6 °F 69.8 °F 94% 30.04 in 7.0 mi WSW 10.4 mph - N/A   Overcast
5:15 PM 69.8 °F 69.8 °F 100% 30.04 in 7.0 mi WSW 9.2 mph 17.3 mph N/A   Overcast
5:35 PM 68.0 °F 68.0 °F 100% 30.05 in 2.5 mi NW 5.8 mph - N/A   Overcast
5:55 PM 66.2 °F - N/A% 30.06 in 0.8 mi WNW 3.5 mph - N/A   Overcast
6:15 PM 64.4 °F - N/A% 30.06 in 0.5 mi WNW 4.6 mph - N/A Fog Fog
6:35 PM 64.4 °F - N/A% 30.06 in 0.5 mi West 3.5 mph - N/A Fog Fog
6:55 PM 64.4 °F - N/A% 30.06 in 0.8 mi West 5.8 mph - N/A   Overcast
7:15 PM 64.4 °F - N/A% 30.06 in 0.8 mi WNW 9.2 mph - N/A   Overcast
7:35 PM 64.4 °F - N/A% 30.07 in 0.5 mi West 5.8 mph - N/A Fog Fog
7:55 PM 64.4 °F - N/A% 30.06 in 0.5 mi West 9.2 mph - N/A Fog Fog
8:15 PM 64.4 °F - N/A% 30.07 in 0.2 mi West 9.2 mph - N/A Fog Fog
8:35 PM 64.4 °F - N/A% 30.08 in 1.5 mi West 8.1 mph - N/A   Overcast
8:55 PM 66.2 °F - N/A% 30.08 in 0.8 mi WNW 5.8 mph - N/A   Overcast
9:15 PM 64.4 °F - N/A% 30.09 in 2.5 mi West 6.9 mph - N/A   Overcast
9:35 PM 64.4 °F - N/A% 30.10 in 3.0 mi West 3.5 mph - N/A   Overcast
9:55 PM 64.4 °F - N/A% 30.11 in 1.8 mi WNW 3.5 mph - N/A   Overcast
10:15 PM 64.4 °F - N/A% 30.10 in 3.0 mi West 4.6 mph - N/A   Overcast
10:35 PM 64.4 °F - N/A% 30.11 in 0.5 mi West 5.8 mph - N/A Fog Fog
10:55 PM 64.4 °F - N/A% 30.11 in 0.8 mi West 4.6 mph - N/A   Overcast
11:15 PM 64.4 °F - N/A% 30.12 in 0.8 mi West 5.8 mph - N/A   Overcast
11:35 PM 64.4 °F - N/A% 30.12 in 2.0 mi WNW 5.8 mph - N/A   Overcast
11:55 PM 64.4 °F - N/A% 30.12 in 1.0 mi WNW 5.8 mph - N/A   Overcast